User: anonymous   Login
Location: Okie-Tex Star Party
(36.8978°N, 102.9520°W)
Time: 01:45:41
(UTC-05:00)
Language:

Hamsat - Orbit

View from above orbital plane
View from above orbital plane
View from above satellite
View from above satellite

Ground track
Ground track

The orbit data is extracted from the following two-line orbital elements,

1 28650U 05017B   16236.69931138  .00000429  00000-0  51830-4 0  9998
2 28650  97.6138 215.8706 0024707  38.7863 321.5122 14.88367284611916
Epoch (UTC): 23 August 2016 16:47:00
Eccentricity: 0.0024707
inclination: 97.6138°
perigee height: 586 km
apogee height: 620 km
right ascension of ascending node: 215.8706°
argument of perigee: 38.7863°
revolutions per day: 14.88367284
mean anomaly at epoch: 321.5122°
orbit number at epoch: 61191

The dashed part of the orbit path shows where the satellite is in the earth's shadow,  

DLR